Weather History for Monument Pass, CO

Change the Weather History Date:

Friday, February 15, 2013

  Actual Average (KAPA) Record (KAPA)
Temperature  
Mean Temperature 20 °F -  
Max Temperature 32 °F 44 °F 62 °F (2011)
Min Temperature 8 °F 21 °F 6 °F (2007)
Degree Days  
Heating Degree Days 45    
Moisture  
Dew Point 13 °F    
Average Humidity 76    
Maximum Humidity 93    
Minimum Humidity 38    
Precipitation  
Precipitation 0.00 in - - ()
Sea Level Pressure  
Sea Level Pressure 30.19 in    
Wind  
Wind Speed 10 mph (West)    
Max Wind Speed 26 mph    
Max Gust Speed 32 mph    
Visibility 10 miles    
Events      
Averages and records for this station are not official NWS values.
T = Trace of Precipitation, MM = Missing Value Source: NWS Daily Summary

Daily Weather History Graph

Daily Weather History Graph

Search for Another Location

Airport:

Trip Planner

Search our weather history database for the weather conditions in past years. The results will help you decide how hot, cold, wet, or windy it might be!

Date:

Astronomy

Feb. 15, 2013 Rise Set
Actual Time 6:49 AM MST 5:35 PM MST
Civil Twilight 6:22 AM MST 6:03 PM MST
Nautical Twilight 5:51 AM MST 6:34 PM MST
Astronomical Twilight 5:20 AM MST 7:05 PM MST
Moon 9:30 AM MST (2/15) 11:36 PM MST (2/15)
Length of Visible Light 11h 40m
Length of Day
10h 46m
Waxing Crescent, 31% of the Moon is Illuminated
Feb 15
Waxing Crescent
Feb 17
First Quarter
Feb 25
Full
Mar 4
Last Quarter
Mar 11
New

Hourly Weather History & Observations

Time (MST) Temp. Windchill Dew Point Humidity Pressure Visibility Wind Dir Wind Speed Gust Speed Precip Events Conditions
12:15 AM 14.0 °F 2.9 °F 10.4 °F 86% 30.16 in 10.0 mi South 8.1 mph - N/A   Mostly Cloudy
12:55 AM 15.8 °F 0.9 °F 12.2 °F 86% 30.15 in 10.0 mi South 15.0 mph - N/A   Overcast
1:15 AM 15.8 °F 2.1 °F 12.2 °F 86% 30.15 in 10.0 mi South 12.7 mph - N/A   Overcast
1:35 AM 15.8 °F 2.1 °F 12.2 °F 86% 30.14 in 10.0 mi South 12.7 mph - N/A   Overcast
1:55 AM 15.8 °F 1.4 °F 12.2 °F 86% 30.14 in 10.0 mi SSW 13.8 mph - N/A   Mostly Cloudy
2:14 AM 14.0 °F 0.5 °F 10.4 °F 86% 30.14 in 10.0 mi SSW 11.5 mph - N/A   Clear
2:35 AM 14.0 °F 2.0 °F 10.4 °F 86% 30.14 in 10.0 mi SSW 9.2 mph - N/A   Clear
2:55 AM 12.2 °F 1.7 °F 8.6 °F 85% 30.14 in 10.0 mi SSW 6.9 mph - N/A   Clear
3:15 AM 12.2 °F -1.0 °F 10.4 °F 92% 30.14 in 10.0 mi SW 10.4 mph - N/A   Clear
3:35 AM 12.2 °F 0.7 °F 10.4 °F 92% 30.13 in 10.0 mi SW 8.1 mph - N/A   Clear
3:55 AM 12.2 °F -0.2 °F 8.6 °F 85% 30.15 in 10.0 mi WSW 9.2 mph - N/A   Clear
4:15 AM 10.4 °F -2.4 °F 6.8 °F 85% 30.15 in 10.0 mi West 9.2 mph - N/A   Clear
4:35 AM 8.6 °F -5.5 °F 6.8 °F 92% 30.15 in 10.0 mi SW 10.4 mph - N/A   Clear
4:55 AM 10.4 °F -3.3 °F 6.8 °F 85% 30.15 in 10.0 mi WSW 10.4 mph - N/A   Scattered Clouds
5:15 AM 10.4 °F -1.5 °F 8.6 °F 92% 30.15 in 10.0 mi SW 8.1 mph - N/A   Mostly Cloudy
5:35 AM 10.4 °F 2.2 °F 8.6 °F 92% 30.15 in 10.0 mi SSW 4.6 mph - N/A   Scattered Clouds
5:54 AM 10.4 °F 0.8 °F 6.8 °F 85% 30.15 in 10.0 mi SSW 5.8 mph - N/A   Mostly Cloudy
6:14 AM 10.4 °F -0.4 °F 8.6 °F 92% 30.15 in 10.0 mi SW 6.9 mph - N/A   Overcast
6:34 AM 14.0 °F 3.9 °F 10.4 °F 86% 30.15 in 10.0 mi SW 6.9 mph - N/A   Overcast
6:54 AM 15.8 °F 7.2 °F 10.4 °F 79% 30.16 in 10.0 mi WSW 5.8 mph - N/A   Overcast
7:14 AM 17.6 °F 8.2 °F 10.4 °F 73% 30.17 in 10.0 mi SW 6.9 mph - N/A   Overcast
7:34 AM 19.4 °F 14.3 °F 12.2 °F 74% 30.17 in 10.0 mi West 3.5 mph - N/A   Overcast
7:54 AM 21.2 °F 16.4 °F 12.2 °F 68% 30.19 in 10.0 mi West 3.5 mph - N/A   Overcast
8:14 AM 21.2 °F 16.4 °F 12.2 °F 68% 30.20 in 10.0 mi WNW 3.5 mph - N/A   Mostly Cloudy
8:34 AM 23.0 °F 15.8 °F 12.2 °F 63% 30.20 in 10.0 mi NW 5.8 mph - N/A   Clear
8:54 AM 24.8 °F 16.1 °F 12.2 °F 59% 30.20 in 10.0 mi North 8.1 mph - N/A   Scattered Clouds
9:14 AM 23.0 °F 17.0 °F 14.0 °F 68% 30.21 in 10.0 mi North 4.6 mph - N/A   Scattered Clouds
9:34 AM 26.6 °F 17.5 °F 14.0 °F 59% 30.20 in 10.0 mi North 9.2 mph - N/A   Scattered Clouds
9:54 AM 26.6 °F 14.7 °F 15.8 °F 64% 30.21 in 10.0 mi North 15.0 mph 18.4 mph N/A   Scattered Clouds
10:13 AM 26.6 °F 15.2 °F 15.8 °F 64% 30.21 in 10.0 mi North 13.8 mph - N/A   Scattered Clouds
10:54 AM 28.4 °F 19.1 °F 14.0 °F 55% 30.21 in 10.0 mi NNW 10.4 mph 16.1 mph N/A   Clear
11:14 AM 30.2 °F 21.9 °F 14.0 °F 51% 30.20 in 10.0 mi NNW 9.2 mph - N/A   Clear
11:34 AM 30.2 °F 22.6 °F 14.0 °F 51% 30.19 in 10.0 mi NNW 8.1 mph - N/A   Clear
11:54 AM 32.0 °F 25.6 °F 14.0 °F 48% 30.19 in 10.0 mi WNW 6.9 mph - N/A   Clear
12:13 PM 32.0 °F 22.5 °F 12.2 °F 44% 30.18 in 10.0 mi NW 12.7 mph - N/A   Clear
12:33 PM 32.0 °F 19.8 °F 10.4 °F 41% 30.18 in 10.0 mi WNW 20.7 mph 28.8 mph N/A   Clear
12:53 PM 32.0 °F 22.1 °F 10.4 °F 41% 30.18 in 10.0 mi NNW 13.8 mph 21.9 mph N/A   Clear
1:14 PM 32.0 °F 19.2 °F 8.6 °F 38% 30.18 in 10.0 mi North 23.0 mph 28.8 mph N/A   Clear
1:34 PM 32.0 °F 20.1 °F 10.4 °F 41% 30.18 in 10.0 mi NNW 19.6 mph 28.8 mph N/A   Scattered Clouds
1:54 PM 32.0 °F 20.8 °F 10.4 °F 41% 30.19 in 10.0 mi North 17.3 mph 20.7 mph N/A   Clear
2:14 PM 30.2 °F 15.9 °F 14.0 °F 51% 30.20 in 10.0 mi North 26.5 mph 32.2 mph N/A   Scattered Clouds
2:33 PM 26.6 °F 12.4 °F 15.8 °F 64% 30.21 in 10.0 mi NNE 21.9 mph 29.9 mph N/A   Mostly Cloudy
2:54 PM 28.4 °F 16.6 °F 14.0 °F 55% 30.21 in 10.0 mi North 16.1 mph 24.2 mph N/A   Mostly Cloudy
3:14 PM 28.4 °F 16.6 °F 12.2 °F 51% 30.22 in 10.0 mi North 16.1 mph 25.3 mph N/A   Overcast
3:34 PM 28.4 °F 17.5 °F 12.2 °F 51% 30.22 in 10.0 mi North 13.8 mph - N/A   Overcast
3:54 PM 28.4 °F 17.0 °F 14.0 °F 55% 30.22 in 7.0 mi North 15.0 mph 24.2 mph N/A   Overcast
4:14 PM 26.6 °F 15.2 °F 17.6 °F 69% 30.23 in 5.0 mi NNE 13.8 mph 21.9 mph N/A   Haze
4:34 PM 23.0 °F 13.1 °F 19.4 °F 86% 30.23 in 4.0 mi NE 9.2 mph - N/A   Haze
4:54 PM 23.0 °F 13.9 °F 19.4 °F 86% 30.23 in 10.0 mi NNE 8.1 mph - N/A   Mostly Cloudy
5:14 PM 23.0 °F 14.7 °F 19.4 °F 86% 30.23 in 10.0 mi NE 6.9 mph - N/A   Scattered Clouds
5:34 PM 21.2 °F 16.4 °F 17.6 °F 86% 30.23 in 10.0 mi NE 3.5 mph - N/A   Clear
5:53 PM 19.4 °F - 17.6 °F 93% 30.23 in 10.0 mi Calm Calm - N/A   Clear
6:14 PM 19.4 °F - 17.6 °F 93% 30.23 in 10.0 mi Calm Calm - N/A   Clear
6:34 PM 19.4 °F 14.3 °F 17.6 °F 93% 30.23 in 10.0 mi ENE 3.5 mph - N/A   Clear
6:53 PM 17.6 °F - 14.0 °F 86% 30.23 in 10.0 mi Calm Calm - N/A   Clear
7:14 PM 17.6 °F - 15.8 °F 93% 30.23 in 10.0 mi Calm Calm - N/A   Clear
7:34 PM 15.8 °F - 14.0 °F 93% 30.23 in 10.0 mi Calm Calm - N/A   Clear
7:54 PM 17.6 °F 10.7 °F 15.8 °F 93% 30.23 in 10.0 mi SW 4.6 mph - N/A   Clear
8:13 PM 14.0 °F - 12.2 °F 93% 30.22 in 10.0 mi Calm Calm - N/A   Clear
8:34 PM 14.0 °F - 12.2 °F 93% 30.22 in 10.0 mi Calm Calm - N/A   Clear
8:53 PM 14.0 °F - 12.2 °F 93% 30.21 in 10.0 mi Calm Calm - N/A   Clear
9:13 PM 14.0 °F - 12.2 °F 93% 30.21 in 10.0 mi Calm Calm - N/A   Clear
9:33 PM 14.0 °F 5.1 °F 12.2 °F 93% 30.21 in 10.0 mi SW 5.8 mph - N/A   Clear
9:54 PM 14.0 °F 2.0 °F 12.2 °F 93% 30.21 in 10.0 mi SSW 9.2 mph - N/A   Clear
10:14 PM 15.8 °F 1.4 °F 12.2 °F 86% 30.21 in 10.0 mi SSW 13.8 mph 18.4 mph N/A   Clear
10:33 PM 17.6 °F 3.7 °F 14.0 °F 86% 30.21 in 10.0 mi SW 13.8 mph - N/A   Scattered Clouds
10:53 PM 19.4 °F 5.5 °F 14.0 °F 80% 30.21 in 10.0 mi SW 15.0 mph - N/A   Scattered Clouds
11:14 PM 19.4 °F 5.5 °F 14.0 °F 80% 30.20 in 10.0 mi SW 15.0 mph - N/A   Clear
11:34 PM 17.6 °F 2.7 °F 14.0 °F 86% 30.20 in 10.0 mi SW 16.1 mph - N/A   Clear
11:54 PM 17.6 °F 2.7 °F 14.0 °F 86% 30.19 in 10.0 mi SW 16.1 mph - N/A   Clear